sat.trackr.live / text

‹ back to catalog

STARLINK-32676

NORAD 62426 · 2024-249T

PAYLOAD ACTIVE UNKNOWN

§ Identity

Operator
Country
US
Launch date
2024-12-23
Launch site
AFETR
Launch vehicle
Mass (kg)
RCS (m²)

Purposes: comms

External: N2YO · Heavens-Above · Gunter

§ Orbital elements

Epoch: 2026-05-24T23:13:07.317120Z

Period
94.27 min
Inclination
42.9970°
Eccentricity
0.0001052
Mean motion
15.27589066 rev/d
Perigee alt
482.3 km
Apogee alt
483.7 km
Semi-major
6,861.2 km
B*
5.2557e-4
RAAN
243.7861°
Arg perigee
272.7674°
Mean anomaly
87.3057°
Rev number
7,947

§ Raw data

STARLINK-326761 62426U 24249T   26144.96744580  .00014232  00000+0  52557-3 0  99992 62426  42.9970 243.7861 0001052 272.7674  87.3057 15.27589066 79473

JSON: /api/v1/satellites/62426 · /tle

For live sub-satellite position, see the globe view (requires WebGL).

§ Visibility from observer

Set your observer location to see the next 7 days of passes ≥ 10°. The values pass through the URL so the page stays shareable.

No JS? Fill the form by hand. The geolocation button needs JavaScript.